Flag for U.S.A. Weather past 2 weeks in Oxnard, California, U.S.A.

Now
60 °F

Sunny.


Feels Like: 60 °F
Forecast: 54 / 62 °F
Wind: 15 mph from West

Location: Oxnard Airport

Current Time: Apr 19, 2015 at 6:45:30 PM

Latest Report: Apr 19, 2015 at 5:51 PM


Visibility: 8 mi

Pressure: 29.88 "Hg

Humidity: 75%

Dew point: 52 °F

Location of OxnardLocation

Historic Weather in Oxnard — Graph

°F

Oxnard temperature yesterday

Maximum temperature yesterday: 69 °F (at 11:51 AM)
Minimum temperature yesterday: 52 °F (at 6:51 AM)
Average temperature yesterday: 60 °F

Past Weeks' High & Low Weather Summary

 TemperatureHumidityPressure
High80 °F (Apr 16, 11:51 AM)93% (Apr 14, 6:51 AM)30.12 "Hg (Apr 14, 6:51 AM)
Low46 °F (Apr 7, 5:51 AM)7% (Apr 16, 11:51 AM)29.83 "Hg (Apr 5, 7:51 PM)
Average59 °F62%29.97 "Hg
* Reported Apr 4 5:51 PM — Apr 19 5:51 PM, Oxnard, Weather by CustomWeather, © 2015

Note: Actual official high and low records may vary slightly from our data, if they occured in-between our weather recording intervals... More about our weather records

Advertising

Oxnard weather history for previous 24 hours

 ConditionsComfort  
Time TempWeatherWind HumidityBarometerVisibility
5:51 PM
Sun, Apr 19
60 °FSunny.15 mph75%29.88 "Hg8 mi
4:51 PM62 °FSunny.16 mph70%29.88 "Hg8 mi
3:51 PM63 °FSunny.14 mph65%29.89 "Hg9 mi
2:51 PM65 °FSunny.16 mph59%29.90 "Hg10 mi
1:51 PM65 °FSunny.14 mph59%29.92 "Hg10 mi
12:51 PM62 °FSunny.14 mph70%29.93 "Hg8 mi
11:51 AM60 °FPassing clouds.10 mph75%29.96 "Hg8 mi
10:51 AM61 °FSunny.9 mph70%29.97 "Hg7 mi
9:51 AM59 °FHaze.5 mph75%29.97 "Hg6 mi
8:51 AM56 °FPartly sunny.5 mph84%29.98 "Hg5 mi
7:51 AM54 °FFog.No wind90%29.99 "Hg2 mi
6:51 AM53 °FFog.3 mph86%29.97 "Hg5 mi
5:51 AM53 °FLow clouds.3 mph83%29.95 "Hg8 mi
4:51 AM52 °FPassing clouds.No wind80%29.93 "Hg8 mi
3:51 AM53 °FPassing clouds.No wind80%29.94 "Hg7 mi
2:51 AM54 °FLow clouds.No wind83%29.94 "Hg7 mi
1:51 AM54 °FFog.No wind86%29.96 "Hg5 mi
12:51 AM55 °FFog.3 mph87%29.97 "Hg6 mi
11:51 PM
Sat, Apr 18
54 °FFog.5 mph90%29.97 "Hg6 mi
11:04 PM56 °FFog.5 mph87%29.97 "Hg6 mi
10:51 PM56 °FPassing clouds.6 mph87%29.96 "Hg7 mi
9:51 PM57 °FLow clouds.6 mph87%29.96 "Hg7 mi
9:03 PM56 °FPassing clouds.5 mph87%29.96 "Hg7 mi
7:51 PM57 °FSunny.10 mph83%29.94 "Hg7 mi
6:51 PM59 °FSunny.12 mph81%29.93 "Hg7 mi
Weather by CustomWeather, © 2015

See weather overviewHow to use our weather pages